contact:dominique.lefevre@mio.osupytheas.fr, maurice.libes@osupytheas.fr, didier.mallarino@osupytheas.fr
Project:EMSO http://www.emso-fr.org/EMSO-France
Depth: 2436.0 m
Title:EMSO Ligure Ouest : Data MII capteur CSTAR
DateTime,Latitude,Longitude,Instrument_Serial,Reference_Counts,Signal_Counts,Corrected_Signal_raw_counts,Calculated_Beam_c_inverse_meters,Internal_thermistor_counts
DateTime,Latitude,Longitude,Instrument_Serial,Reference_Counts,Signal_Counts,Corrected_Signal_raw_counts,Calculated_Beam_c_inverse_meters,Internal_thermistor_counts
2019-10-30T00:01:59,42.805,6.029,CST-1368DR,7483,10485,15328,0.074,551
2019-10-30T00:05:00,42.805,6.029,CST-1368DR,7483,10486,15331,0.074,551
2019-10-30T00:08:02,42.805,6.029,CST-1368DR,7483,10486,15330,0.074,551
2019-10-30T00:11:04,42.805,6.029,CST-1368DR,7483,10486,15330,0.074,551
2019-10-30T00:14:05,42.805,6.029,CST-1368DR,7483,10487,15331,0.074,551
2019-10-30T00:17:07,42.805,6.029,CST-1368DR,7483,10487,15331,0.074,550
2019-10-30T00:20:09,42.805,6.029,CST-1368DR,7483,10487,15331,0.074,551
2019-10-30T00:23:10,42.805,6.029,CST-1368DR,7483,10487,15332,0.073,551
2019-10-30T00:26:12,42.805,6.029,CST-1368DR,7483,10486,15330,0.074,551
2019-10-30T00:29:14,42.805,6.029,CST-1368DR,7483,10486,15330,0.074,551
2019-10-30T00:32:15,42.805,6.029,CST-1368DR,7483,10486,15331,0.074,551
2019-10-30T00:35:17,42.805,6.029,CST-1368DR,7483,10486,15330,0.074,551
2019-10-30T00:38:18,42.805,6.029,CST-1368DR,7483,10485,15329,0.074,551
2019-10-30T00:41:20,42.805,6.029,CST-1368DR,7483,10485,15329,0.074,551
2019-10-30T00:44:22,42.805,6.029,CST-1368DR,7483,10485,15329,0.074,551
2019-10-30T00:47:23,42.805,6.029,CST-1368DR,7483,10486,15330,0.074,551
2019-10-30T00:50:25,42.805,6.029,CST-1368DR,7483,10485,15329,0.074,551
2019-10-30T00:53:27,42.805,6.029,CST-1368DR,7483,10486,15331,0.074,551
2019-10-30T00:56:28,42.805,6.029,CST-1368DR,7483,10485,15329,0.074,551
2019-10-30T00:59:30,42.805,6.029,CST-1368DR,7483,10485,15329,0.074,551
2019-10-30T01:02:32,42.805,6.029,CST-1368DR,7483,10485,15329,0.074,551
2019-10-30T01:05:33,42.805,6.029,CST-1368DR,7483,10485,15329,0.074,551
2019-10-30T01:08:35,42.805,6.029,CST-1368DR,7483,10485,15328,0.074,551
2019-10-30T01:11:37,42.805,6.029,CST-1368DR,7483,10485,15329,0.074,551
2019-10-30T01:14:38,42.805,6.029,CST-1368DR,7483,10486,15330,0.074,551
2019-10-30T01:17:40,42.805,6.029,CST-1368DR,7483,10486,15330,0.074,551
2019-10-30T01:20:41,42.805,6.029,CST-1368DR,7483,10485,15329,0.074,551
2019-10-30T01:23:43,42.805,6.029,CST-1368DR,7483,10486,15330,0.074,551
2019-10-30T01:26:45,42.805,6.029,CST-1368DR,7483,10484,15327,0.075,551
2019-10-30T01:29:46,42.805,6.029,CST-1368DR,7483,10486,15330,0.074,551
2019-10-30T01:32:48,42.805,6.029,CST-1368DR,7483,10486,15330,0.074,551
2019-10-30T01:35:50,42.805,6.029,CST-1368DR,7483,10485,15328,0.074,551
2019-10-30T01:38:51,42.805,6.029,CST-1368DR,7483,10485,15329,0.074,551
2019-10-30T01:41:53,42.805,6.029,CST-1368DR,7483,10485,15329,0.074,550
2019-10-30T01:44:55,42.805,6.029,CST-1368DR,7483,10486,15330,0.074,551
2019-10-30T01:47:56,42.805,6.029,CST-1368DR,7483,10485,15329,0.074,551
2019-10-30T01:50:58,42.805,6.029,CST-1368DR,7483,10486,15330,0.074,551
2019-10-30T01:53:59,42.805,6.029,CST-1368DR,7483,10485,15329,0.074,551
2019-10-30T01:57:01,42.805,6.029,CST-1368DR,7483,10485,15329,0.074,551
2019-10-30T02:00:03,42.805,6.029,CST-1368DR,7483,10485,15329,0.074,551
2019-10-30T02:03:04,42.805,6.029,CST-1368DR,7483,10484,15327,0.075,551
2019-10-30T02:06:06,42.805,6.029,CST-1368DR,7483,10485,15328,0.074,551
2019-10-30T02:09:08,42.805,6.029,CST-1368DR,7483,10484,15327,0.075,551
2019-10-30T02:12:09,42.805,6.029,CST-1368DR,7483,10484,15327,0.075,551
2019-10-30T02:15:11,42.805,6.029,CST-1368DR,7483,10484,15327,0.075,551
2019-10-30T02:18:13,42.805,6.029,CST-1368DR,7483,10485,15329,0.074,551
2019-10-30T02:21:14,42.805,6.029,CST-1368DR,7483,10485,15329,0.074,551
2019-10-30T02:24:16,42.805,6.029,CST-1368DR,7482,10484,15329,0.074,551
2019-10-30T02:27:18,42.805,6.029,CST-1368DR,7483,10485,15328,0.074,551
2019-10-30T02:30:19,42.805,6.029,CST-1368DR,7483,10485,15329,0.074,551
2019-10-30T02:33:21,42.805,6.029,CST-1368DR,7483,10485,15329,0.074,551
2019-10-30T02:36:23,42.805,6.029,CST-1368DR,7483,10485,15329,0.074,551
2019-10-30T02:39:24,42.805,6.029,CST-1368DR,7483,10484,15328,0.074,551
2019-10-30T02:42:26,42.805,6.029,CST-1368DR,7483,10484,15328,0.074,551
2019-10-30T02:45:28,42.805,6.029,CST-1368DR,7483,10484,15328,0.074,551
2019-10-30T02:48:30,42.805,6.029,CST-1368DR,7483,10483,15325,0.075,551
2019-10-30T02:51:31,42.805,6.029,CST-1368DR,7483,10484,15327,0.075,550
2019-10-30T02:54:33,42.805,6.029,CST-1368DR,7483,10483,15326,0.075,551
2019-10-30T02:57:35,42.805,6.029,CST-1368DR,7483,10483,15325,0.075,551
2019-10-30T03:00:36,42.805,6.029,CST-1368DR,7483,10484,15327,0.075,551
2019-10-30T03:03:38,42.805,6.029,CST-1368DR,7482,10485,15331,0.074,551
2019-10-30T03:06:40,42.805,6.029,CST-1368DR,7482,10484,15329,0.074,551
2019-10-30T03:09:41,42.805,6.029,CST-1368DR,7482,10485,15330,0.074,551
2019-10-30T03:12:43,42.805,6.029,CST-1368DR,7482,10484,15329,0.074,551
2019-10-30T03:15:44,42.805,6.029,CST-1368DR,7482,10484,15330,0.074,551
2019-10-30T03:18:46,42.805,6.029,CST-1368DR,7482,10484,15329,0.074,551
2019-10-30T03:21:48,42.805,6.029,CST-1368DR,7482,10485,15330,0.074,551
2019-10-30T03:24:49,42.805,6.029,CST-1368DR,7482,10483,15327,0.075,551
2019-10-30T03:27:51,42.805,6.029,CST-1368DR,7482,10484,15329,0.074,551
2019-10-30T03:30:53,42.805,6.029,CST-1368DR,7482,10484,15329,0.074,551
2019-10-30T03:33:54,42.805,6.029,CST-1368DR,7482,10484,15329,0.074,551
2019-10-30T03:36:56,42.805,6.029,CST-1368DR,7482,10484,15329,0.074,551
2019-10-30T03:39:57,42.805,6.029,CST-1368DR,7482,10484,15329,0.074,550
2019-10-30T03:42:59,42.805,6.029,CST-1368DR,7482,10484,15329,0.074,551
2019-10-30T03:46:01,42.805,6.029,CST-1368DR,7482,10483,15328,0.074,550
2019-10-30T03:49:02,42.805,6.029,CST-1368DR,7482,10483,15327,0.075,551
2019-10-30T03:52:04,42.805,6.029,CST-1368DR,7482,10483,15327,0.075,551
2019-10-30T03:55:06,42.805,6.029,CST-1368DR,7482,10483,15328,0.074,551
2019-10-30T03:58:07,42.805,6.029,CST-1368DR,7482,10484,15329,0.074,551
2019-10-30T04:01:09,42.805,6.029,CST-1368DR,7482,10483,15328,0.074,551
2019-10-30T04:04:11,42.805,6.029,CST-1368DR,7482,10483,15328,0.074,551
2019-10-30T04:07:12,42.805,6.029,CST-1368DR,7482,10484,15329,0.074,551
2019-10-30T04:10:14,42.805,6.029,CST-1368DR,7482,10483,15328,0.074,551
2019-10-30T04:13:16,42.805,6.029,CST-1368DR,7482,10482,15327,0.075,550
2019-10-30T04:16:17,42.805,6.029,CST-1368DR,7482,10483,15328,0.074,551
2019-10-30T04:19:19,42.805,6.029,CST-1368DR,7482,10483,15328,0.074,551
2019-10-30T04:22:20,42.805,6.029,CST-1368DR,7482,10483,15328,0.074,551
2019-10-30T04:25:22,42.805,6.029,CST-1368DR,7482,10483,15328,0.074,551
2019-10-30T04:28:24,42.805,6.029,CST-1368DR,7482,10483,15328,0.074,551
2019-10-30T04:31:25,42.805,6.029,CST-1368DR,7482,10482,15326,0.075,551
2019-10-30T04:34:27,42.805,6.029,CST-1368DR,7482,10483,15327,0.075,551
2019-10-30T04:37:29,42.805,6.029,CST-1368DR,7482,10484,15329,0.074,551
2019-10-30T04:40:30,42.805,6.029,CST-1368DR,7482,10483,15328,0.074,551
2019-10-30T04:43:32,42.805,6.029,CST-1368DR,7482,10484,15329,0.074,551
2019-10-30T04:46:33,42.805,6.029,CST-1368DR,7482,10483,15328,0.074,551
2019-10-30T04:49:35,42.805,6.029,CST-1368DR,7482,10482,15327,0.075,551
2019-10-30T04:52:37,42.805,6.029,CST-1368DR,7482,10483,15327,0.075,551
2019-10-30T04:55:38,42.805,6.029,CST-1368DR,7482,10481,15324,0.076,551
2019-10-30T04:58:40,42.805,6.029,CST-1368DR,7482,10482,15326,0.075,551
2019-10-30T05:01:42,42.805,6.029,CST-1368DR,7482,10484,15329,0.074,551
2019-10-30T05:04:43,42.805,6.029,CST-1368DR,7482,10483,15328,0.074,551
2019-10-30T05:07:45,42.805,6.029,CST-1368DR,7482,10481,15324,0.076,551
2019-10-30T05:10:47,42.805,6.029,CST-1368DR,7482,10483,15328,0.074,551
2019-10-30T05:13:48,42.805,6.029,CST-1368DR,7482,10480,15323,0.076,551
2019-10-30T05:16:50,42.805,6.029,CST-1368DR,7482,10483,15328,0.074,551
2019-10-30T05:19:52,42.805,6.029,CST-1368DR,7482,10480,15323,0.076,551
2019-10-30T05:22:53,42.805,6.029,CST-1368DR,7482,10479,15322,0.076,551
2019-10-30T05:25:55,42.805,6.029,CST-1368DR,7482,10480,15324,0.076,551
2019-10-30T05:28:57,42.805,6.029,CST-1368DR,7482,10482,15327,0.075,551
2019-10-30T05:31:58,42.805,6.029,CST-1368DR,7482,10482,15326,0.075,551
2019-10-30T05:35:00,42.805,6.029,CST-1368DR,7482,10483,15327,0.075,551
2019-10-30T05:38:02,42.805,6.029,CST-1368DR,7482,10475,15316,0.078,551
2019-10-30T05:41:03,42.805,6.029,CST-1368DR,7482,10480,15323,0.076,550
2019-10-30T05:44:05,42.805,6.029,CST-1368DR,7482,10478,15320,0.077,550
2019-10-30T05:47:07,42.805,6.029,CST-1368DR,7482,10480,15324,0.076,551
2019-10-30T05:50:08,42.805,6.029,CST-1368DR,7482,10477,15319,0.077,551
2019-10-30T05:53:10,42.805,6.029,CST-1368DR,7482,10478,15321,0.076,551
2019-10-30T05:56:12,42.805,6.029,CST-1368DR,7482,10475,15316,0.078,551
2019-10-30T05:59:13,42.805,6.029,CST-1368DR,7482,10479,15321,0.076,551
2019-10-30T06:02:15,42.805,6.029,CST-1368DR,7482,10480,15324,0.076,551
2019-10-30T06:05:16,42.805,6.029,CST-1368DR,7482,10483,15327,0.075,551
2019-10-30T06:08:18,42.805,6.029,CST-1368DR,7482,10481,15325,0.075,551
2019-10-30T06:11:20,42.805,6.029,CST-1368DR,7482,10482,15326,0.075,551
2019-10-30T06:14:21,42.805,6.029,CST-1368DR,7481,10483,15330,0.074,551
2019-10-30T06:17:23,42.805,6.029,CST-1368DR,7482,10483,15327,0.075,551
2019-10-30T06:20:25,42.805,6.029,CST-1368DR,7481,10483,15329,0.074,551
2019-10-30T06:23:26,42.805,6.029,CST-1368DR,7481,10483,15330,0.074,551
2019-10-30T06:26:28,42.805,6.029,CST-1368DR,7482,10478,15321,0.076,551
2019-10-30T06:29:29,42.805,6.029,CST-1368DR,7481,10483,15329,0.074,551
2019-10-30T06:32:31,42.805,6.029,CST-1368DR,7481,10480,15325,0.075,551
2019-10-30T06:35:33,42.805,6.029,CST-1368DR,7481,10483,15330,0.074,550
2019-10-30T06:38:34,42.805,6.029,CST-1368DR,7481,10482,15328,0.074,551
2019-10-30T06:41:36,42.805,6.029,CST-1368DR,7481,10483,15329,0.074,550
2019-10-30T06:44:38,42.805,6.029,CST-1368DR,7481,10483,15329,0.074,551
2019-10-30T06:47:39,42.805,6.029,CST-1368DR,7481,10483,15330,0.074,550
2019-10-30T06:50:41,42.805,6.029,CST-1368DR,7481,10480,15325,0.075,551
2019-10-30T06:53:43,42.805,6.029,CST-1368DR,7481,10483,15329,0.074,551
2019-10-30T06:56:44,42.805,6.029,CST-1368DR,7481,10483,15329,0.074,551
2019-10-30T06:59:46,42.805,6.029,CST-1368DR,7481,10483,15329,0.074,551
2019-10-30T07:02:47,42.805,6.029,CST-1368DR,7481,10480,15326,0.075,551
2019-10-30T07:05:49,42.805,6.029,CST-1368DR,7481,10480,15326,0.075,551
2019-10-30T07:08:51,42.805,6.029,CST-1368DR,7481,10483,15329,0.074,551
2019-10-30T07:11:52,42.805,6.029,CST-1368DR,7481,10482,15329,0.074,551
2019-10-30T07:14:54,42.805,6.029,CST-1368DR,7481,10482,15328,0.074,551
2019-10-30T07:17:56,42.805,6.029,CST-1368DR,7481,10480,15325,0.075,551
2019-10-30T07:20:57,42.805,6.029,CST-1368DR,7481,10483,15330,0.074,551
2019-10-30T07:23:59,42.805,6.029,CST-1368DR,7481,10482,15329,0.074,551
2019-10-30T07:27:01,42.805,6.029,CST-1368DR,7481,10482,15328,0.074,550
2019-10-30T07:30:02,42.805,6.029,CST-1368DR,7481,10479,15324,0.076,551
2019-10-30T07:33:04,42.805,6.029,CST-1368DR,7481,10483,15329,0.074,551
2019-10-30T07:36:06,42.805,6.029,CST-1368DR,7481,10482,15329,0.074,551
2019-10-30T07:39:07,42.805,6.029,CST-1368DR,7481,10480,15326,0.075,551
2019-10-30T07:42:09,42.805,6.029,CST-1368DR,7481,10483,15329,0.074,551
2019-10-30T07:45:10,42.805,6.029,CST-1368DR,7481,10481,15327,0.075,551
2019-10-30T07:48:12,42.805,6.029,CST-1368DR,7481,10482,15328,0.074,551
2019-10-30T07:51:14,42.805,6.029,CST-1368DR,7481,10480,15325,0.075,551
2019-10-30T07:54:15,42.805,6.029,CST-1368DR,7481,10482,15328,0.074,551
2019-10-30T07:57:17,42.805,6.029,CST-1368DR,7481,10482,15329,0.074,551
2019-10-30T08:00:19,42.805,6.029,CST-1368DR,7481,10481,15327,0.075,551
2019-10-30T08:03:20,42.805,6.029,CST-1368DR,7481,10482,15329,0.074,551
2019-10-30T08:06:22,42.805,6.029,CST-1368DR,7481,10482,15328,0.074,551
2019-10-30T08:09:23,42.805,6.029,CST-1368DR,7481,10478,15322,0.076,550
2019-10-30T08:12:25,42.805,6.029,CST-1368DR,7481,10475,15318,0.077,551
2019-10-30T08:15:27,42.805,6.029,CST-1368DR,7481,10481,15327,0.075,551
2019-10-30T08:18:28,42.805,6.029,CST-1368DR,7481,10478,15322,0.076,551
2019-10-30T08:21:30,42.805,6.029,CST-1368DR,7481,10482,15328,0.074,551
2019-10-30T08:24:32,42.805,6.029,CST-1368DR,7481,10481,15326,0.075,551
2019-10-30T08:27:33,42.805,6.029,CST-1368DR,7481,10482,15328,0.074,551
2019-10-30T08:30:35,42.805,6.029,CST-1368DR,7481,10483,15329,0.074,551
2019-10-30T08:33:37,42.805,6.029,CST-1368DR,7481,10480,15325,0.075,551
2019-10-30T08:36:38,42.805,6.029,CST-1368DR,7481,10482,15328,0.074,551
2019-10-30T08:39:40,42.805,6.029,CST-1368DR,7480,10480,15327,0.075,551
2019-10-30T08:42:41,42.805,6.029,CST-1368DR,7481,10482,15329,0.074,551
2019-10-30T08:45:43,42.805,6.029,CST-1368DR,7481,10481,15327,0.075,551
2019-10-30T08:48:45,42.805,6.029,CST-1368DR,7481,10479,15324,0.076,551
2019-10-30T08:51:46,42.805,6.029,CST-1368DR,7481,10481,15327,0.075,551
2019-10-30T08:54:48,42.805,6.029,CST-1368DR,7480,10480,15327,0.075,551
2019-10-30T08:57:50,42.805,6.029,CST-1368DR,7481,10483,15329,0.074,551
2019-10-30T09:00:51,42.805,6.029,CST-1368DR,7481,10480,15325,0.075,551
2019-10-30T09:03:53,42.805,6.029,CST-1368DR,7480,10482,15331,0.074,551
2019-10-30T09:06:55,42.805,6.029,CST-1368DR,7480,10481,15329,0.074,551
2019-10-30T09:09:56,42.805,6.029,CST-1368DR,7480,10479,15326,0.075,551
2019-10-30T09:12:58,42.805,6.029,CST-1368DR,7480,10480,15327,0.075,551
2019-10-30T09:15:59,42.805,6.029,CST-1368DR,7480,10481,15329,0.074,551
2019-10-30T09:19:01,42.805,6.029,CST-1368DR,7480,10481,15329,0.074,551
2019-10-30T09:22:03,42.805,6.029,CST-1368DR,7480,10482,15330,0.074,551
2019-10-30T09:25:04,42.805,6.029,CST-1368DR,7480,10482,15329,0.074,551
2019-10-30T09:28:06,42.805,6.029,CST-1368DR,7480,10480,15327,0.075,551
2019-10-30T09:31:08,42.805,6.029,CST-1368DR,7480,10482,15329,0.074,551
2019-10-30T09:34:09,42.805,6.029,CST-1368DR,7480,10483,15331,0.074,551
2019-10-30T09:37:11,42.805,6.029,CST-1368DR,7480,10481,15329,0.074,551
2019-10-30T09:40:12,42.805,6.029,CST-1368DR,7480,10479,15326,0.075,551
2019-10-30T09:43:14,42.805,6.029,CST-1368DR,7480,10482,15329,0.074,551
2019-10-30T09:46:16,42.805,6.029,CST-1368DR,7480,10480,15328,0.074,551
2019-10-30T09:49:17,42.805,6.029,CST-1368DR,7480,10482,15330,0.074,551
2019-10-30T09:52:19,42.805,6.029,CST-1368DR,7480,10480,15327,0.075,551
2019-10-30T09:55:21,42.805,6.029,CST-1368DR,7480,10481,15329,0.074,551
2019-10-30T09:58:22,42.805,6.029,CST-1368DR,7480,10480,15327,0.075,551
2019-10-30T10:01:24,42.805,6.029,CST-1368DR,7480,10482,15329,0.074,551
2019-10-30T10:04:26,42.805,6.029,CST-1368DR,7480,10481,15329,0.074,551
2019-10-30T10:07:27,42.805,6.029,CST-1368DR,7480,10482,15331,0.074,551
2019-10-30T10:10:29,42.805,6.029,CST-1368DR,7480,10478,15324,0.076,551
2019-10-30T10:13:30,42.805,6.029,CST-1368DR,7480,10482,15329,0.074,550
2019-10-30T10:16:32,42.805,6.029,CST-1368DR,7480,10483,15331,0.074,551
2019-10-30T10:19:34,42.805,6.029,CST-1368DR,7480,10482,15330,0.074,551
2019-10-30T10:22:35,42.805,6.029,CST-1368DR,7480,10479,15326,0.075,551
2019-10-30T10:25:37,42.805,6.029,CST-1368DR,7480,10481,15328,0.074,551
2019-10-30T10:28:39,42.805,6.029,CST-1368DR,7480,10481,15329,0.074,551
2019-10-30T10:31:40,42.805,6.029,CST-1368DR,7480,10478,15324,0.076,551
2019-10-30T10:34:42,42.805,6.029,CST-1368DR,7480,10481,15329,0.074,551
2019-10-30T10:37:44,42.805,6.029,CST-1368DR,7480,10481,15328,0.074,551
2019-10-30T10:40:45,42.805,6.029,CST-1368DR,7480,10478,15324,0.076,551
2019-10-30T10:43:47,42.805,6.029,CST-1368DR,7480,10481,15329,0.074,551
2019-10-30T10:46:48,42.805,6.029,CST-1368DR,7480,10480,15327,0.075,551
2019-10-30T10:49:50,42.805,6.029,CST-1368DR,7480,10482,15329,0.074,551
2019-10-30T10:52:52,42.805,6.029,CST-1368DR,7480,10483,15331,0.074,551
2019-10-30T10:55:53,42.805,6.029,CST-1368DR,7480,10481,15329,0.074,551
2019-10-30T10:58:55,42.805,6.029,CST-1368DR,7480,10481,15329,0.074,551
2019-10-30T11:01:57,42.805,6.029,CST-1368DR,7480,10480,15327,0.075,551
2019-10-30T11:04:58,42.805,6.029,CST-1368DR,7480,10480,15328,0.074,550
2019-10-30T11:08:00,42.805,6.029,CST-1368DR,7480,10480,15327,0.075,551
2019-10-30T11:11:02,42.805,6.029,CST-1368DR,7480,10479,15325,0.075,551
2019-10-30T11:14:03,42.805,6.029,CST-1368DR,7480,10480,15327,0.075,551
2019-10-30T11:17:05,42.805,6.029,CST-1368DR,7480,10481,15328,0.074,551
2019-10-30T11:20:06,42.805,6.029,CST-1368DR,7480,10481,15329,0.074,551
2019-10-30T11:23:08,42.805,6.029,CST-1368DR,7480,10481,15328,0.074,551
2019-10-30T11:26:10,42.805,6.029,CST-1368DR,7480,10480,15327,0.075,550
2019-10-30T11:29:11,42.805,6.029,CST-1368DR,7480,10478,15324,0.076,551
2019-10-30T11:32:13,42.805,6.029,CST-1368DR,7480,10477,15322,0.076,551
2019-10-30T11:35:15,42.805,6.029,CST-1368DR,7480,10478,15325,0.075,551
2019-10-30T11:38:16,42.805,6.029,CST-1368DR,7480,10479,15326,0.075,550
2019-10-30T11:41:18,42.805,6.029,CST-1368DR,7480,10481,15328,0.074,551
2019-10-30T11:44:20,42.805,6.029,CST-1368DR,7480,10481,15328,0.074,551
2019-10-30T11:47:21,42.805,6.029,CST-1368DR,7480,10481,15329,0.074,551
2019-10-30T11:50:23,42.805,6.029,CST-1368DR,7480,10481,15329,0.074,550
2019-10-30T11:53:24,42.805,6.029,CST-1368DR,7480,10477,15323,0.076,551
2019-10-30T11:56:26,42.805,6.029,CST-1368DR,7480,10481,15329,0.074,551
2019-10-30T11:59:28,42.805,6.029,CST-1368DR,7480,10481,15329,0.074,551
2019-10-30T12:02:30,42.805,6.029,CST-1368DR,7480,10480,15328,0.074,551
2019-10-30T12:05:31,42.805,6.029,CST-1368DR,7480,10482,15330,0.074,551
2019-10-30T12:08:33,42.805,6.029,CST-1368DR,7480,10480,15327,0.075,551
2019-10-30T12:11:34,42.805,6.029,CST-1368DR,7479,10480,15330,0.074,551
2019-10-30T12:14:36,42.805,6.029,CST-1368DR,7479,10480,15329,0.074,551
2019-10-30T12:17:38,42.805,6.029,CST-1368DR,7479,10476,15323,0.076,551
2019-10-30T12:20:39,42.805,6.029,CST-1368DR,7479,10480,15329,0.074,551
2019-10-30T12:23:41,42.805,6.029,CST-1368DR,7479,10481,15331,0.074,550
2019-10-30T12:26:43,42.805,6.029,CST-1368DR,7479,10481,15330,0.074,551
2019-10-30T12:29:44,42.805,6.029,CST-1368DR,7479,10479,15328,0.074,551
2019-10-30T12:32:46,42.805,6.029,CST-1368DR,7479,10480,15330,0.074,551
2019-10-30T12:35:48,42.805,6.029,CST-1368DR,7479,10479,15327,0.075,551
2019-10-30T12:38:49,42.805,6.029,CST-1368DR,7479,10481,15330,0.074,551
2019-10-30T12:41:51,42.805,6.029,CST-1368DR,7479,10478,15325,0.075,551
2019-10-30T12:44:53,42.805,6.029,CST-1368DR,7479,10480,15328,0.074,551
2019-10-30T12:47:54,42.805,6.029,CST-1368DR,7479,10480,15329,0.074,551
2019-10-30T12:50:56,42.805,6.029,CST-1368DR,7479,10479,15327,0.075,551
2019-10-30T12:53:58,42.805,6.029,CST-1368DR,7479,10480,15329,0.074,551
2019-10-30T12:56:59,42.805,6.029,CST-1368DR,7479,10480,15328,0.074,551
2019-10-30T13:00:01,42.805,6.029,CST-1368DR,7479,10478,15325,0.075,551
2019-10-30T13:03:03,42.805,6.029,CST-1368DR,7479,10478,15325,0.075,551
2019-10-30T13:06:04,42.805,6.029,CST-1368DR,7479,10478,15327,0.075,551
2019-10-30T13:09:06,42.805,6.029,CST-1368DR,7479,10480,15328,0.074,550
2019-10-30T13:12:07,42.805,6.029,CST-1368DR,7479,10480,15329,0.074,551
2019-10-30T13:15:09,42.805,6.029,CST-1368DR,7479,10480,15329,0.074,551
2019-10-30T13:18:11,42.805,6.029,CST-1368DR,7479,10480,15328,0.074,551
2019-10-30T13:21:12,42.805,6.029,CST-1368DR,7479,10480,15329,0.074,551
2019-10-30T13:24:14,42.805,6.029,CST-1368DR,7479,10480,15330,0.074,551
2019-10-30T13:27:16,42.805,6.029,CST-1368DR,7479,10480,15328,0.074,551
2019-10-30T13:30:17,42.805,6.029,CST-1368DR,7479,10480,15329,0.074,551
2019-10-30T13:33:19,42.805,6.029,CST-1368DR,7479,10480,15328,0.074,551
2019-10-30T13:36:21,42.805,6.029,CST-1368DR,7479,10476,15323,0.076,551
2019-10-30T13:39:22,42.805,6.029,CST-1368DR,7479,10480,15330,0.074,551
2019-10-30T13:42:24,42.805,6.029,CST-1368DR,7479,10481,15330,0.074,551
2019-10-30T13:45:26,42.805,6.029,CST-1368DR,7479,10480,15328,0.074,551
2019-10-30T13:48:27,42.805,6.029,CST-1368DR,7479,10480,15329,0.074,551
2019-10-30T13:51:29,42.805,6.029,CST-1368DR,7479,10479,15328,0.074,551
2019-10-30T13:54:31,42.805,6.029,CST-1368DR,7479,10481,15330,0.074,550
2019-10-30T13:57:32,42.805,6.029,CST-1368DR,7479,10480,15330,0.074,551
2019-10-30T14:00:34,42.805,6.029,CST-1368DR,7479,10480,15328,0.074,550
2019-10-30T14:03:35,42.805,6.029,CST-1368DR,7479,10479,15328,0.074,551
2019-10-30T14:06:37,42.805,6.029,CST-1368DR,7479,10478,15327,0.075,551
2019-10-30T14:09:39,42.805,6.029,CST-1368DR,7479,10480,15329,0.074,551
2019-10-30T14:12:40,42.805,6.029,CST-1368DR,7479,10480,15329,0.074,551
2019-10-30T14:15:42,42.805,6.029,CST-1368DR,7479,10478,15327,0.075,550
2019-10-30T14:18:44,42.805,6.029,CST-1368DR,7479,10479,15328,0.074,551
2019-10-30T14:21:45,42.805,6.029,CST-1368DR,7479,10480,15330,0.074,550
2019-10-30T14:24:47,42.805,6.029,CST-1368DR,7479,10480,15329,0.074,551
2019-10-30T14:27:49,42.805,6.029,CST-1368DR,7479,10479,15328,0.074,551
2019-10-30T14:30:50,42.805,6.029,CST-1368DR,7479,10478,15327,0.075,551
2019-10-30T14:33:52,42.805,6.029,CST-1368DR,7479,10479,15328,0.074,551
2019-10-30T14:36:54,42.805,6.029,CST-1368DR,7479,10479,15327,0.075,551
2019-10-30T14:39:55,42.805,6.029,CST-1368DR,7479,10480,15329,0.074,551
2019-10-30T14:42:57,42.805,6.029,CST-1368DR,7479,10478,15327,0.075,551
2019-10-30T14:45:58,42.805,6.029,CST-1368DR,7479,10478,15327,0.075,551
2019-10-30T14:49:00,42.805,6.029,CST-1368DR,7479,10479,15327,0.075,550
2019-10-30T14:52:02,42.805,6.029,CST-1368DR,7479,10480,15328,0.074,551
2019-10-30T14:55:03,42.805,6.029,CST-1368DR,7479,10479,15327,0.075,551
2019-10-30T14:58:05,42.805,6.029,CST-1368DR,7479,10480,15328,0.074,551
2019-10-30T15:01:07,42.805,6.029,CST-1368DR,7479,10479,15327,0.075,550
2019-10-30T15:04:09,42.805,6.029,CST-1368DR,7479,10480,15329,0.074,551
2019-10-30T15:07:10,42.805,6.029,CST-1368DR,7479,10479,15328,0.074,551
2019-10-30T15:10:12,42.805,6.029,CST-1368DR,7479,10480,15328,0.074,551
2019-10-30T15:13:13,42.805,6.029,CST-1368DR,7479,10480,15328,0.074,551
2019-10-30T15:16:15,42.805,6.029,CST-1368DR,7479,10478,15325,0.075,551
2019-10-30T15:19:17,42.805,6.029,CST-1368DR,7479,10478,15326,0.075,551
2019-10-30T15:22:18,42.805,6.029,CST-1368DR,7479,10480,15328,0.074,551
2019-10-30T15:25:20,42.805,6.029,CST-1368DR,7479,10479,15328,0.074,551
2019-10-30T15:28:22,42.805,6.029,CST-1368DR,7479,10479,15328,0.074,551
2019-10-30T15:31:23,42.805,6.029,CST-1368DR,7479,10480,15329,0.074,551
2019-10-30T15:34:25,42.805,6.029,CST-1368DR,7479,10479,15328,0.074,551
2019-10-30T15:37:27,42.805,6.029,CST-1368DR,7479,10479,15328,0.074,551
2019-10-30T15:40:28,42.805,6.029,CST-1368DR,7479,10480,15328,0.074,551
2019-10-30T15:43:30,42.805,6.029,CST-1368DR,7479,10479,15327,0.075,551
2019-10-30T15:46:32,42.805,6.029,CST-1368DR,7479,10479,15328,0.074,550
2019-10-30T15:49:33,42.805,6.029,CST-1368DR,7479,10478,15326,0.075,551
2019-10-30T15:52:35,42.805,6.029,CST-1368DR,7479,10478,15326,0.075,551
2019-10-30T15:55:37,42.805,6.029,CST-1368DR,7479,10479,15327,0.075,551
2019-10-30T15:58:38,42.805,6.029,CST-1368DR,7479,10478,15327,0.075,551
2019-10-30T16:01:40,42.805,6.029,CST-1368DR,7479,10478,15325,0.075,551
2019-10-30T16:04:42,42.805,6.029,CST-1368DR,7478,10479,15330,0.074,550
2019-10-30T16:07:43,42.805,6.029,CST-1368DR,7479,10478,15326,0.075,551
2019-10-30T16:10:45,42.805,6.029,CST-1368DR,7479,10479,15328,0.074,551
2019-10-30T16:13:46,42.805,6.029,CST-1368DR,7479,10479,15327,0.075,551
2019-10-30T16:16:48,42.805,6.029,CST-1368DR,7478,10479,15329,0.074,551
2019-10-30T16:19:50,42.805,6.029,CST-1368DR,7478,10479,15330,0.074,551
2019-10-30T16:22:51,42.805,6.029,CST-1368DR,7478,10478,15328,0.074,551
2019-10-30T16:25:53,42.805,6.029,CST-1368DR,7478,10478,15328,0.074,551
2019-10-30T16:28:55,42.805,6.029,CST-1368DR,7478,10478,15328,0.074,551
2019-10-30T16:31:56,42.805,6.029,CST-1368DR,7478,10478,15328,0.074,551
2019-10-30T16:34:58,42.805,6.029,CST-1368DR,7478,10477,15327,0.075,551
2019-10-30T16:38:00,42.805,6.029,CST-1368DR,7478,10476,15324,0.076,551